Regional Weather Roundup
Issued by NWS

Home | Current Version | Previous Version | Graphics & Text | Print | Product List | Glossary On
Versions: 1 2 3 4 5 6 7 8 9 10 11 12 13 14 15 16 17 18 19 20 21 22 23 24 25 26 27
000
ASUS45 KPSR 180110
RWRAZ

ARIZONA HOURLY REGIONAL WEATHER ROUNDUP
NATIONAL WEATHER SERVICE PHOENIX AZ
600 PM MST TUE JAN 17 2017

NOTE: FAIR INDICATES FEW OR NO CLOUDS BELOW 12,000 FEET WITH NO
SIGNIFICANT WEATHER AND/OR OBSTRUCTIONS TO VISIBILITY.

AZZ001>003-036-180200-
NORTHWEST ARIZONA

CITY           SKY/WX    TMP DP  RH WIND       PRES   REMARKS
BULLHEAD CITY  PTCLDY    59  21  23 N14       30.10R
KINGMAN        PTCLDY    46  21  37 N7        30.11R
$$

AZZ004>008-015-016-018-180200-
NORTH CENTRAL ARIZONA

CITY           SKY/WX    TMP DP  RH WIND       PRES   REMARKS
GRAND CANYON   PTCLDY    35  26  69 E8        30.14S WCI  29
WILLIAMS       MOCLDY    36  30  80 CALM      30.12R
PRESCOTT       PTCLDY    45  29  53 E3        30.10R
FLAGSTAFF      CLOUDY    32  27  81 CALM      30.13R
PAYSON         PTCLDY    43  34  70 CALM      30.13R
PAGE           CLEAR     44  23  43 CALM      30.14S
$$

AZZ009>014-017-180200-
NORTHEAST ARIZONA

CITY           SKY/WX    TMP DP  RH WIND       PRES   REMARKS
WINSLOW        PTCLDY    43  34  70 NW7       30.13R
SAINT JOHNS    MOCLDY    42  33  70 NW7       30.09R
SHOW LOW       CLOUDY    37  32  81 CALM      30.13R
$$

AZZ023-180200-
GREATER PHOENIX AREA

CITY           SKY/WX    TMP DP  RH WIND       PRES   REMARKS
PHOENIX        PTCLDY    60  42  51 SW7       30.03R
BUCKEYE        PTCLDY    57  45  62 S5        30.05S
GLENDALE       PTCLDY    63  41  45 CALM      30.05S
LUKE AFB       PTCLDY    59  45  58 SW5       30.03R
DEER VALLEY    PTCLDY    61  40  45 W7        30.03R
SCOTTSDALE     PTCLDY    60  39  45 W3        30.05R
MESA-FALCON    PTCLDY   N/A N/A N/A W6        30.01R
MESA-GATEWAY   PTCLDY    57  43  58 W3        30.04S
CHANDLER       CLEAR     61  41  48 VRB5      30.04R
$$

AZZ027-028-180200-
SOUTHWEST MARICOPA COUNTY AND PINAL COUNTY

CITY           SKY/WX    TMP DP  RH WIND       PRES   REMARKS
CASA GRANDE    PTCLDY    57  42  57 NW3       30.05R
$$

AZZ503-504-507>509-180200-
SOUTHEAST ARIZONA

CITY           SKY/WX    TMP DP  RH WIND       PRES   REMARKS
TUCSON         PTCLDY    57  43  59 NW10      30.06R
DAVIS-MONTHAN  MOCLDY    55  42  61 NW16      30.05R
RYAN FIELD     CLEAR     55  43  62 NW8       30.06R
NOGALES        CLOUDY    50  36  58 E3        30.06R
SIERRA VISTA   CLOUDY    49  33  54 W10       30.08R
DOUGLAS        CLOUDY    49  37  63 S8        30.07R
SAFFORD        PTCLDY    50  42  74 NW6       30.04R
$$

AZZ020-021-025-026-031-180200-
SOUTHWEST ARIZONA

CITY           SKY/WX    TMP DP  RH WIND       PRES   REMARKS
YUMA           PTCLDY    63  28  26 NW7       30.06R
$$

CAZ031-033-041-043-047-048-061-180200-
SOUTHERN CALIFORNIA

CITY           SKY/WX    TMP DP  RH WIND       PRES   REMARKS
DOWNTOWN L.A.  MOCLDY    61  45  55 W6        30.09R
L.A. AIRPORT   MOCLDY    58  53  84 W12       30.10R
SAN DIEGO      PTCLDY    61  40  45 N8        30.11S
BURBANK        MOCLDY    59  37  44 S3        30.09R
ONTARIO        PTCLDY    60  33  36 W3        30.08S
RIVERSIDE      PTCLDY    59  39  47 W5        30.08S
PALM SPRINGS   PTCLDY    65  34  31 E6        30.09R
EL CENTRO NAS  PTCLDY    63  31  30 W5        30.09S
IMPERIAL       PTCLDY    64  33  31 W5        30.07R
BLYTHE         PTCLDY    62  27  26 N8        30.07S
NEEDLES        PTCLDY    60  21  22 N7        30.10R
$$

NVZ020-UTZ003-180200-
SOUTHERN NEVADA-UTAH

CITY           SKY/WX    TMP DP  RH WIND       PRES   REMARKS
LAS VEGAS      PTCLDY    54  15  21 CALM      30.12S
SALT LAKE CITY MOCLDY    26  20  77 N6        30.22F WCI  19
$$

NMZ009-TXZ055-180200-
NEW MEXICO-WEST TEXAS

CITY           SKY/WX    TMP DP  RH WIND       PRES   REMARKS
ALBUQUERQUE    PTCLDY    45  34  65 SW6       30.09S
EL PASO        PTCLDY    46  38  73 NE7       30.09R
$$


........................KEY........................
SKY/WX - SKY CONDITION/WEATHER
TMP    - TEMPERATURE IN FAHRENHEIT
DP     - DEW POINT IN FAHRENHEIT
RH     - RELATIVE HUMIDITY IN PERCENT
WIND   - DIRECTION AND SPEED IN MILES PER HOUR (MPH)
VRB    - VARIABLE WIND DIRECTION
PRES   - MEAN SEA LEVEL PRESSURE IN INCHES OF MERCURY
         F - FALLING PRESSURE   R - RISING PRESSURE
         S - STEADY PRESSURE
VSB    - VISIBILITY IN MILES
HX     - HEAT INDEX IN FAHRENHEIT
WCI    - WIND CHILL INDEX IN FAHRENHEIT
TC     - TEMPERATURE IN CELSIUS WHICH IS ALSO KNOWN AS
         TEMPERATURE IN CENTIGRADE
AFB    - AIR FORCE BASE
         LUKE AFB IS LUKE AIR FORCE BASE
         DAVIS-MONTHAN IS DAVIS-MONTHAN AIR FORCE BASE
NAS    - NAVAL AIR STATION
         EL CENTRO NAS IS EL CENTRO NAVAL AIR STATION
N/A    - NOT AVAILABLE





USA.gov is the U.S. government's official web portal to all federal, state and local government web resources and services.